sat.trackr.live / text

‹ back to catalog

STARLINK-37738

NORAD 69316 · 2026-119W

PAYLOAD ACTIVE UNKNOWN

§ Identity

Operator
Country
US
Launch date
2026-05-30
Launch site
AFWTR
Launch vehicle
Mass (kg)
RCS (m²)

Purposes: comms

External: N2YO · Heavens-Above · Gunter

§ Orbital elements

Epoch: 2026-09-20T00:27:54.820800Z

Period
93.91 min
Inclination
97.2836°
Eccentricity
0.0001443
Mean motion
15.33451262 rev/d
Perigee alt
464.5 km
Apogee alt
466.5 km
Semi-major
6,843.7 km
B*
4.4617e-4
RAAN
287.8205°
Arg perigee
94.5388°
Mean anomaly
265.6020°
Rev number
1,859

§ Raw data

STARLINK-377381 69316U 26119W   26263.01938450  .00014359  00000+0  44617-3 0  99992 69316  97.2836 287.8205 0001443  94.5388 265.6020 15.33451262 18599

JSON: /api/v1/satellites/69316 · /tle

For live sub-satellite position, see the globe view (requires WebGL).

§ Visibility from observer

Set your observer location to see the next 7 days of passes ≥ 10°. The values pass through the URL so the page stays shareable.

No JS? Fill the form by hand. The geolocation button needs JavaScript.